Lid_Strength_Index
5 5 4 4 4 4 4 3 3 3 3 3 4 4 4 4 4 4 5 5 5 5 5 5 4 4 6 9 10 4 -3 -1 -0 1 5 6 8 8 9 6 6 7 6 5 5 5 7
5 5 5 5 5 5 5 5 5 4 3 3 3 3 4 3 4 4 4 5 5 5 5 5 5 4 7 13 6 5 5 4 3 4 5 6 7 7 8 7 7 6 6 6 5 6 7
4 4 4 4 4 4 5 5 5 5 5 4 4 3 3 3 4 4 4 4 5 5 5 5 4 5 10 12 6 5 6 7 4 4 6 5 6 7 7 8 7 7 9 7 6 6 7
4 4 4 4 4 4 4 4 4 5 5 5 5 4 4 3 3 3 5 3 3 4 4 4 4 7 12 8 6 7 7 7 6 4 4 4 4 7 7 7 8 9 9 11 8 7 6
4 4 4 4 4 4 4 4 4 4 4 4 4 5 5 4 4 3 3 3 3 3 3 4 6 8 13 6 9 7 6 8 7 6 4 2 3 6 7 10 11 11 13 12 10 6 7
5 5 5 4 4 4 4 4 4 4 4 4 4 4 5 5 4 4 4 4 4 3 3 4 5 11 9 9 7 7 6 6 7 7 6 7 7 9 10 11 14 13 13 11 10 8 8
5 5 5 5 5 4 4 4 4 4 4 4 4 4 4 5 4 4 5 8 8 8 7 8 8 10 7 6 4 5 5 7 7 8 11 8 11 13 10 9 9 10 11 11 8 7 8
5 5 5 5 5 5 4 4 4 4 4 4 4 3 4 4 5 4 6 10 8 8 11 7 7 7 6 5 8 5 4 7 9 11 9 11 13 10 7 7 9 10 11 11 9 7 8
6 6 5 5 5 5 4 4 4 4 3 3 3 3 3 4 4 6 8 8 6 7 11 9 7 8 6 5 8 7 5 7 9 10 11 12 11 8 8 8 9 10 11 11 10 8 8
6 6 6 6 5 5 5 4 3 3 3 3 3 2 2 3 7 7 7 5 4 5 14 13 10 9 7 5 8 4 4 6 8 10 10 11 8 8 9 9 8 12 8 8 9 10 13
6 6 5 5 5 4 2 2 1 1 0 0 0 0 0 1 6 9 6 5 4 6 20 11 10 6 7 8 6 6 4 6 9 9 9 11 10 10 10 9 7 10 7 8 8 10 11
6 6 5 5 3 1 0 -0 -1 -1 -1 -1 -1 -1 -1 1 2 5 4 3 5 14 20 12 8 10 10 8 7 5 6 5 6 8 8 9 7 8 9 7 7 7 8 9 9 10 15
6 5 5 2 0 -0 -0 -1 -1 -1 -1 -1 -1 -1 -0 0 4 2 2 4 14 17 12 12 9 9 9 10 9 7 8 9 11 13 13 10 10 8 7 9 8 8 11 14 17 16 17
5 5 2 1 -0 -1 -1 -1 -1 -1 -1 -1 -1 -1 -0 -0 -0 0 3 9 17 14 14 11 11 10 12 9 10 9 9 11 9 10 12 13 14 10 8 9 10 10 10 14 19 19 16
5 2 1 0 -1 -1 -1 -1 -1 -1 -1 -1 -1 1 1 0 -0 1 6 14 14 13 11 11 12 14 12 11 10 10 10 10 10 9 13 13 13 8 7 7 8 10 11 10 13 13 15
3 1 0 -0 -1 -1 -1 -1 -1 -1 -1 -1 2 3 3 0 -0 3 9 13 11 8 8 8 14 14 16 14 13 12 11 9 9 8 8 10 13 9 8 7 8 9 8 12 14 17 19
2 1 -0 -1 -1 -1 -1 -1 -1 -1 -1 -1 2 6 3 0 1 6 13 11 9 6 6 9 12 15 15 15 13 13 12 9 8 8 8 9 11 10 8 10 11 10 11 11 12 14 17
1 0 -0 -1 -1 -1 -1 -1 -1 -1 -0 0 4 9 2 1 9 9 11 9 7 7 6 7 9 13 14 13 14 13 12 10 7 7 10 9 11 12 11 8 7 9 10 11 13 15 13
1 0 -0 -1 -1 -1 -1 -1 -1 -1 -0 2 6 6 2 2 12 11 9 8 7 8 8 8 9 10 11 13 15 13 11 8 7 8 9 9 11 15 13 11 9 10 9 10 11 12 14
1 0 -0 -1 -1 -1 -1 -1 -1 -1 -1 1 6 10 7 5 6 10 11 10 10 6 7 7 8 7 11 14 13 14 12 9 8 7 7 6 11 12 15 12 10 11 9 9 11 14 13
1 0 -0 -0 -1 -1 -1 -1 -1 -1 -1 1 6 8 7 11 10 9 9 9 10 10 7 7 8 9 11 15 14 15 12 11 9 7 9 9 12 10 10 10 10 9 9 9 10 11 12
0 0 -0 -0 -1 -1 -1 -1 -1 -1 -1 3 8 8 6 8 7 9 9 10 10 9 8 9 9 8 9 12 13 15 13 13 13 11 12 10 11 10 11 9 10 10 9 9 9 9 10
0 -0 -0 0 -0 -1 -1 -1 -1 -1 -1 4 3 3 6 8 9 10 10 9 9 8 7 7 7 8 9 9 9 10 11 11 12 13 13 12 13 11 13 10 11 13 10 9 9 9 9
0 -0 -0 0 -0 -1 -1 -1 -1 -1 -1 1 2 3 7 11 9 9 8 9 9 9 9 7 6 8 6 5 7 9 11 11 11 11 11 13 12 13 13 11 17 11 8 8 9 8 8
-0 -0 -0 0 -0 -1 -1 -1 -1 -1 -1 1 1 4 6 10 8 8 8 8 7 7 8 8 6 5 4 6 11 13 14 14 12 11 11 11 12 15 15 14 12 10 8 9 10 10 8
0 -0 -0 -0 -0 -0 -1 -1 -1 -1 -1 1 1 1 4 8 9 6 8 8 10 10 9 8 5 4 6 9 12 15 18 15 14 11 9 9 9 13 14 16 16 11 8 7 8 12 7
0 0 -0 -0 -1 -0 -1 -1 -1 -1 -1 1 1 0 3 8 6 6 9 9 7 8 10 8 8 8 7 11 14 15 16 13 16 16 13 12 13 14 15 16 12 8 7 7 13 12 7
0 0 0 -0 -0 -1 -1 -1 -1 -1 -1 0 2 -0 3 6 6 4 4 7 7 7 11 8 9 9 10 13 13 13 14 14 15 13 13 14 14 15 13 16 16 7 7 11 9 8 6
1 1 1 1 -0 -1 -1 -1 -1 -1 -1 -1 3 0 -0 4 5 3 3 2 3 4 7 7 8 9 8 11 11 11 13 12 14 16 10 15 12 14 13 12 8 7 8 6 6 7 6